This is the latest recevied weather packets stored in our database for station/object OK1KKY-18. If no packets are shown the sender has not sent any weather packets the latest 10 day(s).
| Time | Temp. | Humidity | Pressure | Rain* | Wind** | Luminosity | Snow |
|---|---|---|---|---|---|---|---|
| 1777510060 | -2.22° C | 63% | 1030.7 hPa | - | - | - | - |
| 1777509461 | -2.22° C | 64% | 1030.7 hPa | - | - | - | - |
| 1777508861 | -2.22° C | 64% | 1030.6 hPa | - | - | - | - |
| 1777508261 | -1.67° C | 63% | 1030.7 hPa | - | - | - | - |
| 1777507660 | -2.22° C | 63% | 1030.7 hPa | - | - | - | - |
| 1777507060 | -1.67° C | 63% | 1030.9 hPa | - | - | - | - |
| 1777506460 | -1.67° C | 63% | 1030.8 hPa | - | - | - | - |
| 1777505861 | -1.67° C | 61% | 1030.8 hPa | - | - | - | - |
| 1777505261 | -1.67° C | 61% | 1030.8 hPa | - | - | - | - |
| 1777504661 | -1.11° C | 61% | 1030.9 hPa | - | - | - | - |
| 1777504061 | -1.11° C | 60% | 1030.8 hPa | - | - | - | - |
| 1777503460 | -1.11° C | 60% | 1030.8 hPa | - | - | - | - |
| 1777502861 | -1.11° C | 60% | 1030.7 hPa | - | - | - | - |
| 1777502261 | -1.11° C | 59% | 1030.7 hPa | - | - | - | - |
| 1777501670 | -0.56° C | 59% | 1030.6 hPa | - | - | - | - |
| 1777501528 | -1.11° C | 59% | 1030.5 hPa | - | - | - | - |
| 1777500928 | -0.56° C | 57% | 1030.5 hPa | - | - | - | - |
| 1777500328 | -0.56° C | 57% | 1030.5 hPa | - | - | - | - |
| 1777499728 | -0.56° C | 57% | 1030.3 hPa | - | - | - | - |
| 1777499128 | -0.56° C | 58% | 1030.3 hPa | - | - | - | - |
| 1777498528 | -0.56° C | 57% | 1030.2 hPa | - | - | - | - |
| 1777497928 | 0° C | 56% | 1030.1 hPa | - | - | - | - |
| 1777497329 | 0° C | 55% | 1030.3 hPa | - | - | - | - |
| 1777496729 | 0.56° C | 54% | 1030.2 hPa | - | - | - | - |
| 1777496128 | 0.56° C | 54% | 1030 hPa | - | - | - | - |
* Rain since midnight (hover to see other rain measurements)
** Current wind speed in m/s (hover to see current wind gust speed)